When you browse on this site, cookies collect data to enhance your experience and personalize the content and advertising you see.
Visit our Privacy Policy to learn more. By continuing to use the site, you agree to this use of cookies and data.
  • în România
  • Lista ţărilor
  • Pe 7 zile
  • Temperatura apei
  • Meteo pe hartă
  • Widget-uri
  • user-avatar
    Intrare

    Meteo pe oră la Saurimo

    Astăzi, 2 Iunie, Marţi

    Timp Temperatura Precipitaţii Vânt Presiune Umiditate
    00:00 +23°C° 0 mm 1 m/s 672 mmHg 52%
    01:00 +23°C° 0 mm 1 m/s 673 mmHg 52%
    02:00 +22°C° 0 mm 1 m/s 672 mmHg 54%
    03:00 +21°C° 0 mm 1 m/s 672 mmHg 56%
    04:00 +21°C° 0 mm 1 m/s 671 mmHg 57%
    05:00 +20°C° 0 mm 2 m/s 672 mmHg 57%
    06:00 +20°C° 0 mm 2 m/s 672 mmHg 56%
    07:00 +20°C° 0 mm 2 m/s 673 mmHg 56%
    08:00 +24°C° 0 mm 3 m/s 673 mmHg 49%
    09:00 +26°C° 0 mm 3 m/s 674 mmHg 43%
    10:00 +29°C° 0 mm 4 m/s 674 mmHg 36%
    11:00 +30°C° 0 mm 3 m/s 674 mmHg 34%
    12:00 +31°C° 0 mm 3 m/s 673 mmHg 32%
    13:00 +33°C° 0 mm 3 m/s 673 mmHg 30%
    14:00 +31°C° 0 mm 3 m/s 672 mmHg 33%
    15:00 +30°C° 0 mm 3 m/s 672 mmHg 35%
    16:00 +29°C° 0 mm 3 m/s 671 mmHg 37%
    17:00 +27°C° 0 mm 2 m/s 671 mmHg 41%
    18:00 +25°C° 0 mm 2 m/s 671 mmHg 44%
    19:00 +24°C° 0 mm 2 m/s 672 mmHg 48%
    20:00 +23°C° 0 mm 2 m/s 672 mmHg 49%
    21:00 +21°C° 0 mm 2 m/s 672 mmHg 50%
    22:00 +21°C° 0 mm 2 m/s 672 mmHg 51%
    23:00 +20°C° 0 mm 2 m/s 671 mmHg 52%

    Mâine, 3 Iunie, Miercuri

    Timp Temperatura Precipitaţii Vânt Presiune Umiditate
    00:00 +19°C° 0 mm 2 m/s 671 mmHg 54%
    01:00 +19°C° 0 mm 2 m/s 671 mmHg 55%
    02:00 +18°C° 0 mm 2 m/s 671 mmHg 55%
    03:00 +18°C° 0 mm 2 m/s 671 mmHg 54%
    04:00 +18°C° 0 mm 2 m/s 670 mmHg 54%
    05:00 +18°C° 0 mm 2 m/s 671 mmHg 52%
    06:00 +19°C° 0 mm 3 m/s 671 mmHg 50%
    07:00 +19°C° 0 mm 3 m/s 672 mmHg 48%
    08:00 +22°C° 0 mm 3 m/s 672 mmHg 43%
    09:00 +26°C° 0 mm 3 m/s 673 mmHg 37%
    10:00 +29°C° 0 mm 4 m/s 673 mmHg 32%
    11:00 +30°C° 0 mm 3 m/s 673 mmHg 30%
    12:00 +31°C° 0 mm 2 m/s 673 mmHg 28%
    13:00 +34°C° 0 mm 2 m/s 672 mmHg 27%
    14:00 +32°C° 0 mm 1 m/s 672 mmHg 30%
    15:00 +31°C° 0 mm 1 m/s 671 mmHg 32%
    16:00 +30°C° 0 mm 1 m/s 670 mmHg 35%
    17:00 +28°C° 0 mm 1 m/s 670 mmHg 39%
    18:00 +26°C° 0 mm 1 m/s 670 mmHg 43%
    19:00 +24°C° 0 mm 1 m/s 671 mmHg 47%
    20:00 +23°C° 0 mm 1 m/s 671 mmHg 48%
    21:00 +22°C° 0 mm 1 m/s 671 mmHg 50%
    22:00 +21°C° 0 mm 1 m/s 671 mmHg 52%
    23:00 +21°C° 0 mm 1 m/s 670 mmHg 54%

    Poimâine, 4 Iunie, Joi

    Timp Temperatura Precipitaţii Vânt Presiune Umiditate
    00:00 +20°C° 0 mm 1 m/s 670 mmHg 56%
    01:00 +20°C° 0 mm 1 m/s 670 mmHg 58%
    02:00 +20°C° 0 mm 1 m/s 670 mmHg 59%
    03:00 +19°C° 0 mm 1 m/s 670 mmHg 60%
    04:00 +19°C° 0 mm 1 m/s 670 mmHg 60%
    05:00 +18°C° 0 mm 2 m/s 671 mmHg 58%
    06:00 +19°C° 0 mm 2 m/s 671 mmHg 55%
    07:00 +19°C° 0 mm 2 m/s 672 mmHg 52%
    08:00 +23°C° 0 mm 2 m/s 673 mmHg 46%
    09:00 +26°C° 0 mm 2 m/s 673 mmHg 40%
    10:00 +29°C° 0 mm 2 m/s 674 mmHg 34%
    11:00 +31°C° 0 mm 2 m/s 673 mmHg 31%
    12:00 +32°C° 0 mm 2 m/s 673 mmHg 28%
    13:00 +34°C° 0 mm 1 m/s 673 mmHg 25%
    14:00 +33°C° 0 mm 1 m/s 672 mmHg 28%
    15:00 +32°C° 0 mm 1 m/s 672 mmHg 30%
    16:00 +31°C° 0 mm 1 m/s 671 mmHg 32%
    17:00 +29°C° 0 mm 1 m/s 671 mmHg 35%
    18:00 +27°C° 0 mm 1 m/s 671 mmHg 38%
    19:00 +25°C° 0 mm 1 m/s 671 mmHg 42%
    20:00 +24°C° 0 mm 1 m/s 671 mmHg 43%
    21:00 +24°C° 0 mm 1 m/s 672 mmHg 44%
    22:00 +23°C° 0 mm 1 m/s 672 mmHg 46%
    23:00 +22°C° 0 mm 1 m/s 671 mmHg 49%

    5 Iunie, Vineri

    Timp Temperatura Precipitaţii Vânt Presiune Umiditate
    00:00 +21°C° 0 mm 1 m/s 671 mmHg 53%
    01:00 +18°C° 0 mm 0 m/s 671 mmHg 57%
    02:00 +18°C° 0 mm 0 m/s 671 mmHg 57%
    03:00 +19°C° 0 mm 1 m/s 671 mmHg 58%
    04:00 +19°C° 0 mm 1 m/s 671 mmHg 59%
    05:00 +20°C° 0 mm 1 m/s 671 mmHg 58%
    06:00 +20°C° 0 mm 1 m/s 672 mmHg 57%
    07:00 +20°C° 0 mm 2 m/s 672 mmHg 56%
    08:00 +24°C° 0 mm 2 m/s 673 mmHg 49%
    09:00 +27°C° 0 mm 2 m/s 674 mmHg 41%
    10:00 +30°C° 0 mm 3 m/s 674 mmHg 34%
    11:00 +31°C° 0 mm 3 m/s 674 mmHg 31%
    12:00 +34°C° 0 mm 2 m/s 673 mmHg 28%
    13:00 +35°C° 0 mm 2 m/s 673 mmHg 25%
    14:00 +34°C° 0 mm 2 m/s 672 mmHg 28%
    15:00 +31°C° 0 mm 1 m/s 672 mmHg 31%
    16:00 +30°C° 0 mm 1 m/s 671 mmHg 34%
    17:00 +29°C° 0 mm 1 m/s 671 mmHg 36%
    18:00 +27°C° 0 mm 1 m/s 672 mmHg 38%
    19:00 +25°C° 0 mm 1 m/s 672 mmHg 40%
    20:00 +24°C° 0 mm 1 m/s 672 mmHg 43%
    21:00 +24°C° 0 mm 1 m/s 672 mmHg 45%
    22:00 +23°C° 0 mm 1 m/s 672 mmHg 47%
    23:00 +22°C° 0 mm 1 m/s 672 mmHg 49%

    6 Iunie, Sâmbătă

    Timp Temperatura Precipitaţii Vânt Presiune Umiditate
    00:00 +21°C° 0 mm 1 m/s 672 mmHg 50%
    01:00 +21°C° 0 mm 1 m/s 671 mmHg 52%
    02:00 +20°C° 0 mm 1 m/s 671 mmHg 53%
    03:00 +19°C° 0 mm 2 m/s 671 mmHg 55%
    04:00 +18°C° 0 mm 2 m/s 671 mmHg 56%
    05:00 +19°C° 0 mm 2 m/s 671 mmHg 54%
    06:00 +19°C° 0 mm 2 m/s 672 mmHg 52%
    07:00 +20°C° 0 mm 3 m/s 672 mmHg 49%
    08:00 +24°C° 0 mm 3 m/s 673 mmHg 42%
    09:00 +27°C° 0 mm 4 m/s 674 mmHg 35%
    10:00 +30°C° 0 mm 4 m/s 674 mmHg 28%
    11:00 +32°C° 0 mm 4 m/s 674 mmHg 26%
    12:00 +33°C° 0 mm 3 m/s 673 mmHg 23%
    13:00 +34°C° 0 mm 3 m/s 673 mmHg 21%
    14:00 +34°C° 0 mm 2 m/s 672 mmHg 22%
    15:00 +32°C° 0 mm 2 m/s 672 mmHg 23%
    16:00 +32°C° 0 mm 2 m/s 672 mmHg 23%
    17:00 +29°C° 0 mm 2 m/s 671 mmHg 28%
    18:00 +26°C° 0 mm 2 m/s 671 mmHg 32%
    19:00 +23°C° 0 mm 1 m/s 671 mmHg 36%
    20:00 +23°C° 0 mm 1 m/s 671 mmHg 38%
    21:00 +21°C° 0 mm 2 m/s 671 mmHg 40%
    22:00 +20°C° 0 mm 2 m/s 672 mmHg 42%
    23:00 +19°C° 0 mm 2 m/s 671 mmHg 42%

    7 Iunie, Duminică

    Timp Temperatura Precipitaţii Vânt Presiune Umiditate
    00:00 +19°C° 0 mm 2 m/s 671 mmHg 42%
    01:00 +18°C° 0 mm 2 m/s 671 mmHg 43%
    02:00 +18°C° 0 mm 2 m/s 671 mmHg 43%
    03:00 +17°C° 0 mm 2 m/s 671 mmHg 44%
    04:00 +17°C° 0 mm 2 m/s 671 mmHg 45%
    05:00 +17°C° 0 mm 3 m/s 671 mmHg 45%
    06:00 +18°C° 0 mm 3 m/s 671 mmHg 46%
    07:00 +18°C° 0 mm 4 m/s 672 mmHg 46%
    08:00 +21°C° 0 mm 4 m/s 672 mmHg 41%
    09:00 +25°C° 0 mm 4 m/s 673 mmHg 35%
    10:00 +28°C° 0 mm 4 m/s 673 mmHg 30%
    11:00 +30°C° 0 mm 4 m/s 673 mmHg 27%
    12:00 +31°C° 0 mm 3 m/s 672 mmHg 24%
    13:00 +32°C° 0 mm 2 m/s 672 mmHg 21%
    14:00 +31°C° 0 mm 2 m/s 672 mmHg 21%
    15:00 +31°C° 0 mm 2 m/s 671 mmHg 22%
    16:00 +31°C° 0 mm 2 m/s 671 mmHg 22%
    17:00 +28°C° 0 mm 2 m/s 671 mmHg 27%
    18:00 +25°C° 0 mm 2 m/s 671 mmHg 32%
    19:00 +21°C° 0 mm 2 m/s 670 mmHg 37%
    20:00 +20°C° 0 mm 2 m/s 671 mmHg 39%
    21:00 +19°C° 0 mm 2 m/s 671 mmHg 42%
    22:00 +18°C° 0 mm 2 m/s 671 mmHg 44%
    23:00 +18°C° 0 mm 2 m/s 671 mmHg 45%
    Arată mai mult